St. Joseph, KS

4:18 PM CST on November 12, 2019 (GMT -0600)
Rosecrans Memorial

Weather History for KSTJ - October, 2019

Change the Weather History Date:

Wednesday, October 23, 2019

  Actual Average Record
Temperature  
Mean Temperature 54 °F 52 °F  
Max Temperature 66 °F 64 °F 91 °F (1939)
Min Temperature 42 °F 40 °F 24 °F (1937)
Degree Days  
Heating Degree Days 11 13  
Month to date heating degree days 232 220  
Since 1 July heating degree days 237 300  
Cooling Degree Days 0 0  
Month to date cooling degree days 17 18  
Year to date cooling degree days 1466 1217  
Growing Degree Days 4 (Base 50)    
Moisture  
Dew Point 39 °F    
Average Humidity 59    
Maximum Humidity 83    
Minimum Humidity 34    
Precipitation  
Precipitation 0.00 in 0.10 in 1.57 in (1947)
Month to date precipitation 3.14 2.14  
Year to date precipitation 36.74 31.86  
Sea Level Pressure  
Sea Level Pressure 29.93 in    
Wind  
Wind Speed 9 mph (SW)    
Max Wind Speed 24 mph    
Max Gust Speed 34 mph    
Visibility 10 miles    
Events      
T = Trace of Precipitation, MM = Missing Value Source: NWS Daily Summary

Daily Weather History Graph

Daily Weather History Graph

Search for Another Location

Airport or City:

Astronomy

Oct. 23, 2019 Rise Set
Actual Time 7:38 AM CDT 6:29 PM CDT
Civil Twilight 7:10 AM CDT 6:56 PM CDT
Nautical Twilight 6:39 AM CDT 7:28 PM CDT
Astronomical Twilight 6:07 AM CDT 7:59 PM CDT
Moon 1:58 AM CDT (10/23) 4:19 PM CDT (10/23)
Length of Visible Light 11h 46m
Length of Day
10h 51m
Waning Crescent, 26% of the Moon is Illuminated
Oct 23
Waning Crescent
Oct 27
New
Nov 4
First Quarter
Nov 12
Full
Nov 19
Last Quarter

Hourly Weather History & Observations

Time (CDT) Temp. Windchill Dew Point Humidity Pressure Visibility Wind Dir Wind Speed Gust Speed Precip Events Conditions
12:53 AM 42.1 °F 40.2 °F 36.0 °F 79% 29.91 in 10.0 mi SSE 3.5 mph - N/A   Clear
1:53 AM 44.1 °F 41.5 °F 39.0 °F 82% 29.91 in 10.0 mi South 4.6 mph - N/A   Overcast
2:53 AM 46.0 °F 43.1 °F 37.9 °F 73% 29.89 in 10.0 mi SSE 5.8 mph - N/A   Scattered Clouds
3:53 AM 45.0 °F 43.5 °F 39.0 °F 80% 29.88 in 10.0 mi South 3.5 mph - N/A   Partly Cloudy
4:53 AM 46.9 °F - 39.0 °F 74% 29.86 in 10.0 mi SSE 5.8 mph - N/A   Scattered Clouds
5:53 AM 45.0 °F 42.6 °F 37.9 °F 76% 29.86 in 10.0 mi SSE 4.6 mph - N/A   Clear
6:53 AM 46.9 °F - 39.0 °F 74% 29.85 in 10.0 mi South 8.1 mph - N/A   Scattered Clouds
7:53 AM 50.0 °F - 37.0 °F 61% 29.88 in 10.0 mi West 5.8 mph - N/A   Mostly Cloudy
8:53 AM 52.0 °F - 37.9 °F 59% 29.88 in 10.0 mi South 5.8 mph - N/A   Partly Cloudy
9:53 AM 53.1 °F - 37.9 °F 57% 29.87 in 10.0 mi South 6.9 mph - N/A   Partly Cloudy
10:53 AM 60.1 °F - 37.9 °F 44% 29.86 in 10.0 mi SW 9.2 mph - N/A   Clear
11:53 AM 64.9 °F - 37.0 °F 36% 29.83 in 10.0 mi SSW 21.9 mph 31.1 mph N/A   Clear
12:53 PM 66.0 °F - 39.0 °F 37% 29.82 in 10.0 mi SSW 16.1 mph 26.5 mph N/A   Clear
1:53 PM 64.9 °F - 37.0 °F 36% 29.82 in 10.0 mi West 11.5 mph 25.3 mph N/A   Clear
2:53 PM 66.0 °F - 37.9 °F 36% 29.83 in 10.0 mi West 16.1 mph 24.2 mph N/A   Clear
3:53 PM 64.0 °F - 43.0 °F 46% 29.85 in 10.0 mi WNW 13.8 mph 26.5 mph N/A   Clear
4:53 PM 62.1 °F - 43.0 °F 50% 29.91 in 10.0 mi NW 12.7 mph 25.3 mph N/A   Clear
5:53 PM 60.1 °F - 42.1 °F 51% 29.95 in 10.0 mi North - - N/A   Clear
6:53 PM 57.0 °F - 41.0 °F 55% 30.00 in 10.0 mi NNW 6.9 mph - N/A   Clear
7:53 PM 53.1 °F - 41.0 °F 64% 30.05 in 10.0 mi North 6.9 mph - N/A   Clear
8:53 PM 48.0 °F - 42.1 °F 80% 30.09 in 10.0 mi North 3.5 mph - N/A   Clear
9:53 PM 50.0 °F - 41.0 °F 71% 30.14 in 10.0 mi North 8.1 mph - N/A   Clear
10:53 PM 48.0 °F - 41.0 °F 77% 30.18 in 10.0 mi North 10.4 mph - N/A   Clear
11:53 PM 46.0 °F 39.3 °F 39.0 °F 76% 30.21 in 10.0 mi North 16.1 mph 24.2 mph N/A   Partly Cloudy